Terminal Aerodrome Forecast
Issued by NWS Boston, MA

Home | Current Version | Previous Version | Text Only | Print | Product List | Glossary On
Versions: 1 2 3 4 5 6 7 8 9 10 11 12 13 14 15 16 17 18 19 20 21 22 23 24 25 26 27 28 29 30 31 32 33 34 35 36 37 38 39 40 41 42 43 44 45 46 47 48 49 50
000
FTUS41 KBOX 290825 AAA
TAFPVD
TAF AMD
KPVD 290825Z 2908/3006 VRB03KT 6SM BR FEW250
      TEMPO 2908/2911 2SM BR SCT002
     FM291100 20006KT P6SM SCT250
     FM291800 20010KT P6SM SCT060
     FM300200 22006KT P6SM FEW250=

USA.gov is the U.S. government's official web portal to all federal, state and local government web resources and services.